{"data":{"norad_id":68528,"intl_designator":"2026-068W","name":"STARLINK-37241","alt_names":[],"object_type":"PAYLOAD","status":"ACTIVE","operator":null,"country":"US","launch_date":"2026-03-30","launch_site_code":"AFETR","launch_vehicle":null,"mission":null,"orbit_class":"UNKNOWN","rcs_meters":null,"size_class":null,"mass_kg":null,"dimensions":null,"purposes":["comms"],"wikipedia_slug":null,"has_3d_model":false,"image_url":null,"decayed_at":null,"tle_current":{"epoch":"2026-09-20T03:20:16.765152Z","epoch_age_seconds":78534,"freshness":"FRESH","line1":"1 68528U 26068W   26263.13908293  .00011584  00000+0  35344-3 0  9995","line2":"2 68528  53.1663 303.4010 0000640  56.1462 303.9602 15.34401566 26758","mean_motion":15.34401566,"eccentricity":6.4e-5,"inclination_deg":53.1663,"raan_deg":303.401,"arg_perigee_deg":56.1462,"mean_anomaly_deg":303.9602,"bstar":0.00035344,"rev_number":2675,"period_min":93.847662300939,"perigee_km":462.26077225156,"apogee_km":463.13639920653,"semimajor_km":6840.835585729,"source":"CELESTRAK","updated_at":"2026-09-20T09:00:43.906776Z"}}}